TimeCDT,TemperatureF,Dew PointF,Humidity,Sea Level PressureIn,VisibilityMPH,Wind Direction,Wind SpeedMPH,Gust SpeedMPH,PrecipitationIn,Events,Conditions,WindDirDegrees,DateUTC
12:15 AM,67.1,63.5,88,30.06,10.0,SSE,8.1,-,N/A,,Clear,160,2013-08-19 05:15:00
12:35 AM,67.5,63.5,87,30.05,10.0,SSE,10.4,-,N/A,,Clear,160,2013-08-19 05:35:00
12:55 AM,67.1,63.5,88,30.05,10.0,South,6.9,-,N/A,,Clear,170,2013-08-19 05:55:00
1:15 AM,68.0,63.7,86,30.06,10.0,South,10.4,17.3,N/A,,Clear,180,2013-08-19 06:15:00
1:35 AM,68.5,63.9,85,30.06,10.0,South,11.5,18.4,N/A,,Clear,190,2013-08-19 06:35:00
1:55 AM,69.3,63.9,83,30.05,10.0,South,12.7,20.7,N/A,,Clear,170,2013-08-19 06:55:00
2:15 AM,68.9,63.5,83,30.05,10.0,South,10.4,17.3,N/A,,Clear,180,2013-08-19 07:15:00
2:35 AM,68.9,63.5,83,30.04,10.0,South,15.0,-,N/A,,Clear,190,2013-08-19 07:35:00
2:55 AM,68.4,63.1,83,30.03,10.0,South,13.8,19.6,N/A,,Clear,180,2013-08-19 07:55:00
3:15 AM,67.8,63.1,85,30.04,10.0,SSW,11.5,-,N/A,,Clear,200,2013-08-19 08:15:00
3:35 AM,67.3,63.0,86,30.03,10.0,South,12.7,-,N/A,,Clear,180,2013-08-19 08:35:00
3:55 AM,67.1,62.8,86,30.02,10.0,South,10.4,-,N/A,,Clear,180,2013-08-19 08:55:00
4:15 AM,66.2,62.6,88,30.02,10.0,South,6.9,-,N/A,,Clear,180,2013-08-19 09:15:00
4:35 AM,65.7,62.6,90,30.03,10.0,South,4.6,-,N/A,,Clear,170,2013-08-19 09:35:00
4:55 AM,65.5,62.6,90,30.02,10.0,Calm,Calm,-,N/A,,Clear,0,2013-08-19 09:55:00
5:15 AM,64.0,61.5,91,30.03,7.0,SSE,3.5,-,N/A,,Clear,160,2013-08-19 10:15:00
5:35 AM,63.9,61.2,91,30.03,7.0,South,4.6,-,N/A,,Clear,170,2013-08-19 10:35:00
5:55 AM,63.7,61.5,93,30.02,7.0,South,8.1,-,N/A,,Clear,190,2013-08-19 10:55:00
6:15 AM,63.7,61.7,93,30.02,7.0,South,5.8,-,N/A,,Clear,190,2013-08-19 11:15:00
6:35 AM,63.9,61.7,93,30.02,7.0,Calm,Calm,-,N/A,,Clear,0,2013-08-19 11:35:00
6:55 AM,62.8,61.0,94,30.02,5.0,SE,4.6,-,N/A,,Clear,140,2013-08-19 11:55:00
7:15 AM,63.5,61.5,93,30.03,5.0,SE,3.5,-,N/A,,Clear,130,2013-08-19 12:15:00
7:35 AM,64.2,62.1,93,30.03,7.0,SSE,3.5,-,N/A,,Clear,150,2013-08-19 12:35:00
7:55 AM,65.5,63.0,92,30.04,7.0,SSE,3.5,-,N/A,,Clear,160,2013-08-19 12:55:00
8:15 AM,66.7,63.9,90,30.04,7.0,Calm,Calm,-,N/A,,Clear,0,2013-08-19 13:15:00
8:35 AM,67.6,64.0,88,30.04,7.0,SSE,3.5,-,N/A,,Clear,150,2013-08-19 13:35:00
8:55 AM,68.9,64.6,86,30.05,7.0,South,6.9,-,N/A,,Clear,170,2013-08-19 13:55:00
9:15 AM,70.2,64.9,83,30.05,10.0,South,6.9,-,N/A,,Clear,180,2013-08-19 14:15:00
9:35 AM,71.6,65.5,81,30.05,10.0,South,6.9,-,N/A,,Clear,180,2013-08-19 14:35:00
9:55 AM,73.4,66.2,78,30.05,10.0,SSW,9.2,-,N/A,,Clear,200,2013-08-19 14:55:00
10:15 AM,74.3,66.0,75,30.04,10.0,SSW,9.2,-,N/A,,Clear,200,2013-08-19 15:15:00
10:35 AM,75.2,66.2,73,30.04,10.0,SSW,9.2,-,N/A,,Clear,210,2013-08-19 15:35:00
10:55 AM,76.3,66.6,72,30.04,10.0,South,10.4,-,N/A,,Clear,180,2013-08-19 15:55:00
11:15 AM,77.2,66.9,71,30.04,10.0,South,10.4,-,N/A,,Clear,190,2013-08-19 16:15:00
11:35 AM,78.8,67.1,67,30.04,10.0,SSW,8.1,-,N/A,,Clear,200,2013-08-19 16:35:00
11:55 AM,80.2,67.5,65,30.04,10.0,SSW,9.2,-,N/A,,Clear,200,2013-08-19 16:55:00
12:15 PM,81.7,68.0,63,30.03,10.0,SSW,8.1,-,N/A,,Clear,200,2013-08-19 17:15:00
12:35 PM,82.4,67.3,60,30.03,10.0,SSW,6.9,-,N/A,,Clear,200,2013-08-19 17:35:00
12:55 PM,84.4,68.4,58,30.02,10.0,SSW,10.4,-,N/A,,Clear,210,2013-08-19 17:55:00
1:15 PM,84.9,68.0,57,30.02,10.0,South,10.4,-,N/A,,Clear,170,2013-08-19 18:15:00
1:35 PM,85.5,67.8,55,30.01,10.0,South,10.4,-,N/A,,Clear,190,2013-08-19 18:35:00
1:55 PM,86.0,67.8,54,30.00,10.0,South,13.8,-,N/A,,Clear,170,2013-08-19 18:55:00
2:15 PM,87.1,67.8,53,30.00,10.0,South,11.5,-,N/A,,Clear,170,2013-08-19 19:15:00
2:35 PM,87.4,67.3,51,29.99,10.0,SSE,12.7,18.4,N/A,,Clear,160,2013-08-19 19:35:00
2:55 PM,88.2,67.5,50,29.99,10.0,South,12.7,-,N/A,,Clear,180,2013-08-19 19:55:00
3:15 PM,89.2,67.6,49,29.99,10.0,SSW,13.8,19.6,N/A,,Clear,200,2013-08-19 20:15:00
3:35 PM,89.8,66.9,47,29.99,10.0,South,12.7,-,N/A,,Clear,180,2013-08-19 20:35:00
3:55 PM,90.0,66.2,45,29.98,10.0,South,8.1,16.1,N/A,,Clear,190,2013-08-19 20:55:00
4:15 PM,90.0,66.0,45,29.98,10.0,South,9.2,-,N/A,,Clear,180,2013-08-19 21:15:00
4:35 PM,90.3,66.6,45,29.97,10.0,SSW,10.4,-,N/A,,Clear,200,2013-08-19 21:35:00
4:55 PM,90.3,66.9,46,29.97,10.0,South,11.5,-,N/A,,Clear,190,2013-08-19 21:55:00
5:15 PM,90.5,67.5,47,29.97,10.0,South,9.2,-,N/A,,Clear,190,2013-08-19 22:15:00
5:35 PM,90.3,66.7,46,29.96,10.0,South,6.9,-,N/A,,Clear,190,2013-08-19 22:35:00
5:55 PM,89.8,66.9,47,29.96,10.0,South,6.9,-,N/A,,Clear,180,2013-08-19 22:55:00
6:15 PM,89.6,66.4,46,29.96,10.0,SSW,5.8,-,N/A,,Clear,200,2013-08-19 23:15:00
6:35 PM,88.7,67.3,49,29.96,10.0,SSW,5.8,-,N/A,,Clear,200,2013-08-19 23:35:00
6:55 PM,87.8,68.0,52,29.95,10.0,South,5.8,-,N/A,,Clear,180,2013-08-19 23:55:00
7:15 PM,86.2,69.4,57,29.95,10.0,SSE,5.8,-,N/A,,Clear,150,2013-08-20 00:15:00
7:35 PM,84.4,69.6,61,29.94,10.0,SE,8.1,-,N/A,,Clear,140,2013-08-20 00:35:00
7:55 PM,83.1,68.9,62,29.95,10.0,SE,8.1,-,N/A,,Clear,140,2013-08-20 00:55:00
8:15 PM,80.8,68.5,66,29.95,10.0,SSE,8.1,-,N/A,,Clear,150,2013-08-20 01:15:00
8:35 PM,78.8,68.4,70,29.95,10.0,SSE,8.1,-,N/A,,Clear,150,2013-08-20 01:35:00
8:55 PM,77.0,68.2,74,29.95,10.0,SSE,8.1,-,N/A,,Clear,160,2013-08-20 01:55:00
9:15 PM,76.1,68.4,77,29.96,10.0,SSE,8.1,-,N/A,,Clear,150,2013-08-20 02:15:00
9:35 PM,75.6,67.5,76,29.96,10.0,SSE,8.1,-,N/A,,Clear,150,2013-08-20 02:35:00
9:55 PM,75.6,67.1,75,29.97,10.0,SSE,8.1,-,N/A,,Clear,150,2013-08-20 02:55:00
10:15 PM,74.1,66.4,77,29.97,10.0,South,5.8,-,N/A,,Clear,170,2013-08-20 03:15:00
10:35 PM,72.5,66.0,80,29.97,10.0,South,6.9,-,N/A,,Clear,170,2013-08-20 03:35:00
10:55 PM,73.4,66.2,78,29.97,10.0,South,6.9,-,N/A,,Clear,170,2013-08-20 03:55:00
11:15 PM,72.7,66.0,80,29.97,10.0,South,6.9,-,N/A,,Clear,180,2013-08-20 04:15:00
11:35 PM,71.6,65.8,82,29.97,10.0,SSW,5.8,-,N/A,,Clear,200,2013-08-20 04:35:00
11:55 PM,72.5,66.2,81,29.97,10.0,South,5.8,-,N/A,,Clear,190,2013-08-20 04:55:00